sat.trackr.live / text

‹ back to catalog

NIGERIASAT-2

NORAD 37789 · 2011-044B

PAYLOAD ACTIVE UNKNOWN

§ Identity

Operator
Country
NIG
Launch date
2011-08-17
Launch site
DLS
Launch vehicle
Mass (kg)
RCS (m²)
0.50

External: N2YO · Heavens-Above · Gunter

§ Orbital elements

Epoch: 2026-09-20T04:52:59.714688Z

Period
97.92 min
Inclination
97.8906°
Eccentricity
0.0029789
Mean motion
14.70584151 rev/d
Perigee alt
638.2 km
Apogee alt
680.2 km
Semi-major
7,037.3 km
B*
6.6918e-5
RAAN
237.2735°
Arg perigee
175.5955°
Mean anomaly
311.4516°
Rev number
80,453

§ Raw data

NIGERIASAT-21 37789U 11044B   26263.20346892  .00000360  00000+0  66918-4 0  99992 37789  97.8906 237.2735 0029789 175.5955 311.4516 14.70584151804533

JSON: /api/v1/satellites/37789 · /tle

For live sub-satellite position, see the globe view (requires WebGL).

§ Visibility from observer

Set your observer location to see the next 7 days of passes ≥ 10°. The values pass through the URL so the page stays shareable.

No JS? Fill the form by hand. The geolocation button needs JavaScript.